Tracking 30986 objects as of 9-Jul-2025
HD Live streaming from Space Station
objects crossing your sky now

CZ-6A DEB

Track CZ-6A DEB now!
10-day predictions


NORAD ID: 54347
Int'l Code: 2022-151CS
Perigee: 726.1 km
Apogee: 877.5 km
Inclination: 98.7 °
Period: 100.8 minutes
Semi major axis: 7172 km
RCS: Unknown
Launch date: November 11, 2022
Source: People's Republic of China (PRC)
Launch site: Taiyaun Space Center, China (TSC)

Note: This is SATELLITE DEBRIS
Your satellite tracking list
Your tracking list is empty




NASA's NSSDC Master Catalog

Two Line Element Set (TLE):
1 54347U 22151CS  25189.57835766  .00000338  00000-0  14211-3 0  9992
2 54347  98.6859 207.3542 0105511  11.9281 348.4363 14.29116715137827
Source of the keplerian elements: AFSPC